IWA11LA SGAS-SLVR

Flight info

Callsign IWA11LA
Flight time 1h 30m
Altitude 36000
Route OBLUM OBLUM UN420 KIMAL UL793 XOLAT UM415 TOMUR
Aircraft A319/M-SBDE3FGHIRWY/LB2

Departure

Time 2026-05-05 11:41
Airport Silvio Pettirossi International Airport (SGAS)

Arrival

Time 2026-05-05 13:12
Airport Viru Viru International Airport (SLVR)
Time Latitude Longitude Altitude Speed Heading
2026-05-05 11:06 -25.24235 -57.51551 283 ft 0 kts 125°
2026-05-05 11:31 -25.24233 -57.51553 282 ft 3 kts 125°
2026-05-05 11:32 -25.24218 -57.51577 282 ft 4 kts 130°
2026-05-05 11:32 -25.24199 -57.51599 283 ft 4 kts 136°
2026-05-05 11:32 -25.24179 -57.51618 282 ft 4 kts 150°
2026-05-05 11:32 -25.24155 -57.51627 284 ft 3 kts 187°
2026-05-05 11:33 -25.24152 -57.51627 285 ft 0 kts 191°
2026-05-05 11:35 -25.24158 -57.51628 284 ft 3 kts 191°
2026-05-05 11:35 -25.24190 -57.51635 285 ft 7 kts 193°
2026-05-05 11:36 -25.24237 -57.51648 283 ft 8 kts 193°
2026-05-05 11:36 -25.24295 -57.51674 284 ft 10 kts 225°
2026-05-05 11:36 -25.24298 -57.51743 284 ft 10 kts 278°
2026-05-05 11:36 -25.24342 -57.51784 285 ft 10 kts 192°
2026-05-05 11:37 -25.24415 -57.51801 286 ft 12 kts 192°
2026-05-05 11:37 -25.24502 -57.51822 287 ft 14 kts 192°
2026-05-05 11:37 -25.24601 -57.51845 288 ft 15 kts 192°
2026-05-05 11:37 -25.24713 -57.51873 292 ft 18 kts 192°
2026-05-05 11:38 -25.24835 -57.51903 291 ft 18 kts 192°
2026-05-05 11:38 -25.24956 -57.51932 292 ft 18 kts 192°
2026-05-05 11:38 -25.25077 -57.51961 297 ft 18 kts 192°
2026-05-05 11:38 -25.25196 -57.51990 295 ft 17 kts 192°
2026-05-05 11:39 -25.25314 -57.52018 298 ft 17 kts 192°
2026-05-05 11:39 -25.25421 -57.52044 300 ft 10 kts 192°
2026-05-05 11:39 -25.25479 -57.52072 299 ft 9 kts 233°
2026-05-05 11:39 -25.25477 -57.52141 299 ft 10 kts 284°
2026-05-05 11:40 -25.25460 -57.52216 298 ft 11 kts 284°
2026-05-05 11:40 -25.25413 -57.52259 300 ft 8 kts 10°
2026-05-05 11:40 -25.25404 -57.52257 299 ft 0 kts 12°
2026-05-05 11:41 -25.25185 -57.52203 294 ft 74 kts 12°
2026-05-05 11:41 -25.24449 -57.52026 288 ft 143 kts 12°
2026-05-05 11:41 -25.23365 -57.51759 670 ft 164 kts 14°
2026-05-05 11:41 -25.22240 -57.51477 1369 ft 166 kts 13°
2026-05-05 11:42 -25.21083 -57.51200 1971 ft 177 kts 10°
2026-05-05 11:42 -25.19808 -57.50908 2336 ft 199 kts 11°
2026-05-05 11:42 -25.18367 -57.50564 2767 ft 225 kts 11°
2026-05-05 11:42 -25.16772 -57.50177 3425 ft 241 kts 11°
2026-05-05 11:43 -25.15121 -57.49773 4396 ft 245 kts 11°
2026-05-05 11:43 -25.14013 -57.49500 5057 ft 248 kts 11°
2026-05-05 11:43 -25.12317 -57.49084 6029 ft 252 kts 11°
2026-05-05 11:43 -25.10596 -57.48664 6986 ft 255 kts 11°
2026-05-05 11:44 -25.08847 -57.48241 7887 ft 260 kts 10°
2026-05-05 11:44 -25.07036 -57.48094 8736 ft 264 kts 354°
2026-05-05 11:44 -25.05238 -57.48589 9582 ft 270 kts 337°
2026-05-05 11:44 -25.03114 -57.50115 10403 ft 288 kts 324°
2026-05-05 11:45 -25.02007 -57.51043 10582 ft 304 kts 324°
2026-05-05 11:45 -25.00279 -57.52500 11000 ft 319 kts 323°
2026-05-05 11:45 -24.98502 -57.54005 11645 ft 325 kts 323°
2026-05-05 11:45 -24.96693 -57.55538 12328 ft 330 kts 323°
2026-05-05 11:46 -24.94884 -57.57069 13005 ft 334 kts 323°
2026-05-05 11:46 -24.93020 -57.58637 13667 ft 339 kts 322°
2026-05-05 11:46 -24.91127 -57.60221 14257 ft 343 kts 322°
2026-05-05 11:46 -24.89216 -57.61818 14857 ft 347 kts 322°
2026-05-05 11:47 -24.87287 -57.63433 15460 ft 350 kts 322°
2026-05-05 11:47 -24.85334 -57.65067 16073 ft 353 kts 322°
2026-05-05 11:47 -24.83359 -57.66722 16702 ft 356 kts 321°
2026-05-05 11:47 -24.81402 -57.68361 17316 ft 359 kts 321°
2026-05-05 11:48 -24.77380 -57.71725 18516 ft 367 kts 321°
2026-05-05 11:48 -24.75332 -57.73435 19057 ft 370 kts 321°
2026-05-05 11:48 -24.73266 -57.75159 19612 ft 373 kts 321°
2026-05-05 11:49 -24.71213 -57.76873 20162 ft 376 kts 321°
2026-05-05 11:49 -24.69118 -57.78623 20717 ft 380 kts 321°
2026-05-05 11:49 -24.67003 -57.80388 21278 ft 383 kts 320°
2026-05-05 11:49 -24.64868 -57.82167 21834 ft 386 kts 320°
2026-05-05 11:50 -24.62717 -57.83959 22389 ft 389 kts 320°
2026-05-05 11:50 -24.60563 -57.85751 22939 ft 392 kts 320°
2026-05-05 11:50 -24.58376 -57.87568 23478 ft 396 kts 320°
2026-05-05 11:50 -24.56174 -57.89402 23935 ft 399 kts 320°
2026-05-05 11:51 -24.53953 -57.91253 24382 ft 401 kts 320°
2026-05-05 11:51 -24.51719 -57.93112 24834 ft 403 kts 320°
2026-05-05 11:51 -24.49476 -57.94979 25284 ft 405 kts 320°
2026-05-05 11:51 -24.47215 -57.96855 25726 ft 408 kts 320°
2026-05-05 11:52 -24.44946 -57.98734 26162 ft 410 kts 320°
2026-05-05 11:52 -24.42657 -58.00624 26589 ft 412 kts 320°
2026-05-05 11:52 -24.40387 -58.02500 27015 ft 414 kts 320°
2026-05-05 11:52 -24.38075 -58.04410 27443 ft 416 kts 319°
2026-05-05 11:53 -24.35753 -58.06327 27869 ft 419 kts 319°
2026-05-05 11:53 -24.33409 -58.08265 28275 ft 421 kts 319°
2026-05-05 11:53 -24.31089 -58.10182 28667 ft 424 kts 319°
2026-05-05 11:53 -24.28719 -58.12138 29065 ft 427 kts 319°
2026-05-05 11:54 -24.26333 -58.14102 29466 ft 429 kts 319°
2026-05-05 11:54 -24.23931 -58.16080 29854 ft 432 kts 319°
2026-05-05 11:54 -24.21523 -58.18063 30213 ft 434 kts 319°
2026-05-05 11:54 -24.19099 -58.20059 30522 ft 436 kts 319°
2026-05-05 11:55 -24.16665 -58.22062 30816 ft 439 kts 318°
2026-05-05 11:55 -24.14246 -58.24051 31111 ft 441 kts 318°
2026-05-05 11:55 -24.11786 -58.26075 31377 ft 444 kts 318°
2026-05-05 11:55 -24.09301 -58.28120 31633 ft 447 kts 317°
2026-05-05 11:56 -24.06797 -58.30182 31914 ft 449 kts 317°
2026-05-05 11:56 -24.04298 -58.32238 32315 ft 448 kts 317°
2026-05-05 11:56 -24.01833 -58.34260 32714 ft 448 kts 317°
2026-05-05 11:56 -23.99336 -58.36303 33100 ft 448 kts 316°
2026-05-05 11:57 -23.96835 -58.38352 33494 ft 448 kts 316°
2026-05-05 11:57 -23.94340 -58.40393 33889 ft 448 kts 316°
2026-05-05 11:57 -23.91859 -58.42422 34243 ft 448 kts 315°
2026-05-05 11:57 -23.89357 -58.44472 34602 ft 446 kts 315°
2026-05-05 11:58 -23.86870 -58.46510 34980 ft 445 kts 315°
2026-05-05 11:58 -23.84397 -58.48532 35362 ft 443 kts 315°
2026-05-05 11:58 -23.81963 -58.50521 35752 ft 440 kts 315°
2026-05-05 11:58 -23.79517 -58.52529 35967 ft 439 kts 315°
2026-05-05 11:59 -23.74676 -58.56506 36016 ft 431 kts 315°
2026-05-05 11:59 -23.69891 -58.60442 36013 ft 430 kts 315°
2026-05-05 12:00 -23.65121 -58.64385 36011 ft 430 kts 315°
2026-05-05 12:00 -23.60375 -58.68300 36016 ft 430 kts 315°
2026-05-05 12:01 -23.55587 -58.72217 36015 ft 430 kts 315°
2026-05-05 12:01 -23.50781 -58.76149 36011 ft 430 kts 315°
2026-05-05 12:02 -23.46005 -58.80055 36011 ft 430 kts 315°
2026-05-05 12:02 -23.41212 -58.83974 35991 ft 431 kts 315°
2026-05-05 12:03 -23.36437 -58.87880 35995 ft 431 kts 315°
2026-05-05 12:03 -23.31626 -58.91808 36004 ft 431 kts 315°
2026-05-05 12:04 -23.26834 -58.95712 36003 ft 431 kts 315°
2026-05-05 12:04 -23.22021 -58.99632 36008 ft 431 kts 315°
2026-05-05 12:05 -23.17239 -59.03526 35991 ft 432 kts 316°
2026-05-05 12:05 -23.12412 -59.07451 35997 ft 432 kts 316°
2026-05-05 12:06 -23.07600 -59.11370 36002 ft 432 kts 316°
2026-05-05 12:06 -23.02811 -59.15268 36002 ft 432 kts 316°
2026-05-05 12:07 -22.97981 -59.19181 36000 ft 432 kts 316°
2026-05-05 12:07 -22.93201 -59.23048 35983 ft 432 kts 316°
2026-05-05 12:08 -22.88379 -59.26954 35990 ft 432 kts 316°
2026-05-05 12:08 -22.83542 -59.30867 35988 ft 433 kts 316°
2026-05-05 12:09 -22.78732 -59.34753 35994 ft 433 kts 316°
2026-05-05 12:09 -22.73900 -59.38658 35994 ft 432 kts 316°
2026-05-05 12:10 -22.69068 -59.42554 35983 ft 432 kts 316°
2026-05-05 12:10 -22.64249 -59.46429 35986 ft 433 kts 317°
2026-05-05 12:11 -22.59410 -59.50319 35990 ft 433 kts 316°
2026-05-05 12:11 -22.54594 -59.54200 35993 ft 433 kts 316°
2026-05-05 12:12 -22.49745 -59.58100 35997 ft 433 kts 316°
2026-05-05 12:12 -22.44925 -59.61979 35991 ft 434 kts 317°
2026-05-05 12:13 -22.40079 -59.65867 35990 ft 434 kts 317°
2026-05-05 12:13 -22.35217 -59.69759 35992 ft 433 kts 317°
2026-05-05 12:14 -22.30372 -59.73645 35991 ft 433 kts 317°
2026-05-05 12:14 -22.25545 -59.77520 35993 ft 434 kts 317°
2026-05-05 12:15 -22.20716 -59.81388 35998 ft 434 kts 317°
2026-05-05 12:15 -22.15863 -59.85273 35997 ft 434 kts 317°
2026-05-05 12:16 -22.11004 -59.89162 36000 ft 434 kts 317°
2026-05-05 12:16 -22.06145 -59.93043 36001 ft 434 kts 317°
2026-05-05 12:17 -22.01318 -59.96892 36000 ft 434 kts 317°
2026-05-05 12:17 -21.96439 -60.00777 35990 ft 434 kts 317°
2026-05-05 12:18 -21.91602 -60.04633 35993 ft 434 kts 317°
2026-05-05 12:18 -21.86746 -60.08507 35991 ft 434 kts 317°
2026-05-05 12:19 -21.81889 -60.12367 35986 ft 434 kts 317°
2026-05-05 12:19 -21.77028 -60.16225 35986 ft 434 kts 317°
2026-05-05 12:20 -21.72171 -60.20082 35969 ft 434 kts 318°
2026-05-05 12:20 -21.67306 -60.23945 35977 ft 435 kts 318°
2026-05-05 12:21 -21.62440 -60.27799 35979 ft 435 kts 318°
2026-05-05 12:21 -21.57603 -60.31631 35979 ft 434 kts 318°
2026-05-05 12:22 -21.52739 -60.35476 35979 ft 434 kts 318°
2026-05-05 12:22 -21.47869 -60.39323 35971 ft 434 kts 318°
2026-05-05 12:23 -21.43004 -60.43174 35971 ft 434 kts 318°
2026-05-05 12:23 -21.38126 -60.47023 35969 ft 435 kts 318°
2026-05-05 12:24 -21.33253 -60.50861 35977 ft 435 kts 318°
2026-05-05 12:24 -21.28377 -60.54703 35976 ft 435 kts 318°
2026-05-05 12:25 -21.23502 -60.58547 35975 ft 435 kts 319°
2026-05-05 12:25 -21.18625 -60.62387 35977 ft 435 kts 319°
2026-05-05 12:26 -21.13742 -60.66219 35973 ft 435 kts 319°
2026-05-05 12:26 -21.08755 -60.69921 35974 ft 440 kts 327°
2026-05-05 12:27 -21.02883 -60.72053 35976 ft 451 kts 342°
2026-05-05 12:27 -20.96761 -60.73572 35973 ft 451 kts 342°
2026-05-05 12:28 -20.90645 -60.75118 35967 ft 452 kts 342°
2026-05-05 12:28 -20.84526 -60.76661 35976 ft 452 kts 342°
2026-05-05 12:29 -20.78407 -60.78204 35973 ft 452 kts 342°
2026-05-05 12:29 -20.73318 -60.79476 35978 ft 452 kts 342°
2026-05-05 12:30 -20.67201 -60.81005 35969 ft 452 kts 342°
2026-05-05 12:30 -20.61078 -60.82535 35969 ft 452 kts 342°
2026-05-05 12:31 -20.54948 -60.84072 35968 ft 452 kts 342°
2026-05-05 12:31 -20.48821 -60.85602 35969 ft 452 kts 342°
2026-05-05 12:32 -20.42687 -60.87126 35954 ft 452 kts 342°
2026-05-05 12:32 -20.36558 -60.88656 35959 ft 453 kts 342°
2026-05-05 12:33 -20.30455 -60.90177 35966 ft 453 kts 342°
2026-05-05 12:33 -20.24318 -60.91699 35969 ft 453 kts 342°
2026-05-05 12:34 -20.18180 -60.93227 35975 ft 453 kts 342°
2026-05-05 12:34 -20.12047 -60.94750 35969 ft 453 kts 342°
2026-05-05 12:35 -20.05905 -60.96278 35971 ft 453 kts 342°
2026-05-05 12:35 -19.99760 -60.97807 35972 ft 453 kts 342°
2026-05-05 12:36 -19.93622 -60.99331 35973 ft 453 kts 342°
2026-05-05 12:36 -19.87478 -61.00854 35964 ft 453 kts 342°
2026-05-05 12:37 -19.81340 -61.02376 35966 ft 453 kts 342°
2026-05-05 12:37 -19.75190 -61.03898 35971 ft 453 kts 342°
2026-05-05 12:38 -19.69046 -61.05414 35981 ft 453 kts 342°
2026-05-05 12:38 -19.62902 -61.06930 35986 ft 453 kts 342°
2026-05-05 12:39 -19.56761 -61.08445 35984 ft 453 kts 342°
2026-05-05 12:39 -19.50666 -61.09939 35987 ft 453 kts 343°
2026-05-05 12:40 -19.44519 -61.11400 35982 ft 453 kts 343°
2026-05-05 12:40 -19.38361 -61.12849 35981 ft 452 kts 343°
2026-05-05 12:41 -19.32219 -61.14307 35980 ft 452 kts 343°
2026-05-05 12:41 -19.26075 -61.15759 35971 ft 452 kts 343°
2026-05-05 12:42 -19.19930 -61.17207 35973 ft 452 kts 343°
2026-05-05 12:42 -19.13788 -61.18656 35980 ft 452 kts 343°
2026-05-05 12:43 -19.07639 -61.20108 35982 ft 452 kts 343°
2026-05-05 12:43 -19.01491 -61.21563 35974 ft 452 kts 343°
2026-05-05 12:44 -18.95346 -61.23010 35974 ft 452 kts 343°
2026-05-05 12:44 -18.89244 -61.24449 35976 ft 452 kts 343°
2026-05-05 12:45 -18.83106 -61.25896 35985 ft 452 kts 343°
2026-05-05 12:45 -18.76958 -61.27343 35985 ft 452 kts 343°
2026-05-05 12:46 -18.70824 -61.28794 35979 ft 452 kts 343°
2026-05-05 12:46 -18.64685 -61.30229 35982 ft 452 kts 344°
2026-05-05 12:47 -18.58545 -61.31671 35986 ft 451 kts 343°
2026-05-05 12:47 -18.52409 -61.33112 35987 ft 451 kts 343°
2026-05-05 12:48 -18.46316 -61.34544 35986 ft 451 kts 344°
2026-05-05 12:48 -18.40262 -61.36201 35982 ft 446 kts 333°
2026-05-05 12:49 -18.37541 -61.37706 35948 ft 441 kts 322°
2026-05-05 12:49 -18.35189 -61.39733 35706 ft 435 kts 310°
2026-05-05 12:49 -18.33298 -61.42187 35468 ft 430 kts 300°
2026-05-05 12:49 -18.31875 -61.44936 35233 ft 427 kts 290°
2026-05-05 12:50 -18.30716 -61.47816 34989 ft 427 kts 290°
2026-05-05 12:50 -18.29561 -61.50678 34474 ft 424 kts 290°
2026-05-05 12:50 -18.28408 -61.53532 33883 ft 423 kts 290°
2026-05-05 12:50 -18.27266 -61.56367 33263 ft 420 kts 290°
2026-05-05 12:51 -18.26129 -61.59194 32687 ft 417 kts 290°
2026-05-05 12:51 -18.24999 -61.61996 32129 ft 415 kts 290°
2026-05-05 12:51 -18.23876 -61.64784 31564 ft 412 kts 290°
2026-05-05 12:51 -18.22759 -61.67559 31014 ft 410 kts 291°
2026-05-05 12:52 -18.21651 -61.70315 30464 ft 408 kts 291°
2026-05-05 12:52 -18.20546 -61.73057 29893 ft 407 kts 291°
2026-05-05 12:52 -18.19445 -61.75791 29318 ft 404 kts 291°
2026-05-05 12:52 -18.18354 -61.78494 28779 ft 401 kts 291°
2026-05-05 12:53 -18.17261 -61.81192 28242 ft 398 kts 292°
2026-05-05 12:53 -18.16181 -61.83861 27711 ft 396 kts 292°
2026-05-05 12:53 -18.15170 -61.86539 27180 ft 393 kts 287°
2026-05-05 12:53 -18.14483 -61.89276 26677 ft 391 kts 283°
2026-05-05 12:54 -18.13175 -61.94801 25676 ft 388 kts 284°
2026-05-05 12:54 -18.12520 -61.97550 25187 ft 387 kts 284°
2026-05-05 12:54 -18.11863 -62.00283 24714 ft 385 kts 285°
2026-05-05 12:55 -18.11205 -62.03009 24230 ft 384 kts 285°
2026-05-05 12:55 -18.10551 -62.05722 23748 ft 382 kts 285°
2026-05-05 12:55 -18.09900 -62.08424 23210 ft 381 kts 285°
2026-05-05 12:55 -18.09254 -62.11116 22710 ft 378 kts 285°
2026-05-05 12:56 -18.08618 -62.13782 22220 ft 375 kts 285°
2026-05-05 12:56 -18.07985 -62.16437 21728 ft 372 kts 285°
2026-05-05 12:56 -18.07355 -62.19075 21238 ft 370 kts 285°
2026-05-05 12:56 -18.06729 -62.21687 20742 ft 368 kts 285°
2026-05-05 12:57 -18.06105 -62.24285 20250 ft 366 kts 285°
2026-05-05 12:57 -18.05482 -62.26875 19763 ft 365 kts 285°
2026-05-05 12:57 -18.04860 -62.29459 19266 ft 364 kts 285°
2026-05-05 12:57 -18.04235 -62.32039 18785 ft 364 kts 285°
2026-05-05 12:58 -18.03609 -62.34613 18299 ft 364 kts 284°
2026-05-05 12:58 -18.02990 -62.37185 17772 ft 363 kts 284°
2026-05-05 12:58 -18.02373 -62.39750 17290 ft 360 kts 285°
2026-05-05 12:58 -18.01760 -62.42297 16813 ft 358 kts 285°
2026-05-05 12:59 -18.01150 -62.44826 16346 ft 357 kts 285°
2026-05-05 12:59 -18.00543 -62.47348 15885 ft 356 kts 286°
2026-05-05 12:59 -17.99936 -62.49866 15417 ft 355 kts 285°
2026-05-05 13:00 -17.98731 -62.54840 14493 ft 353 kts 286°
2026-05-05 13:00 -17.98125 -62.57335 14024 ft 352 kts 287°
2026-05-05 13:01 -17.96325 -62.64754 12543 ft 341 kts 288°
2026-05-05 13:01 -17.95747 -62.67143 12062 ft 333 kts 288°
2026-05-05 13:01 -17.95184 -62.69479 11582 ft 327 kts 287°
2026-05-05 13:01 -17.94627 -62.71781 11180 ft 322 kts 288°
2026-05-05 13:02 -17.94085 -62.74012 10879 ft 310 kts 288°
2026-05-05 13:02 -17.93557 -62.76177 10499 ft 303 kts 288°
2026-05-05 13:02 -17.93042 -62.78292 10149 ft 295 kts 288°
2026-05-05 13:02 -17.92539 -62.80352 9805 ft 287 kts 289°
2026-05-05 13:03 -17.92049 -62.82360 9434 ft 280 kts 289°
2026-05-05 13:03 -17.91571 -62.84316 9074 ft 273 kts 289°
2026-05-05 13:03 -17.91105 -62.86223 8710 ft 266 kts 289°
2026-05-05 13:03 -17.90652 -62.88078 8343 ft 259 kts 289°
2026-05-05 13:04 -17.90211 -62.89882 7979 ft 252 kts 289°
2026-05-05 13:04 -17.89782 -62.91638 7628 ft 245 kts 289°
2026-05-05 13:04 -17.89368 -62.93327 7267 ft 239 kts 289°
2026-05-05 13:04 -17.88962 -62.94991 6927 ft 233 kts 289°
2026-05-05 13:05 -17.88456 -62.96562 6588 ft 223 kts 300°
2026-05-05 13:05 -17.87573 -62.97852 6237 ft 214 kts 317°
2026-05-05 13:05 -17.86394 -62.98772 5856 ft 209 kts 325°
2026-05-05 13:05 -17.85192 -62.99581 5545 ft 201 kts 326°
2026-05-05 13:06 -17.84028 -63.00363 5279 ft 196 kts 326°
2026-05-05 13:06 -17.82892 -63.01128 5025 ft 192 kts 326°
2026-05-05 13:06 -17.81785 -63.01874 4786 ft 187 kts 326°
2026-05-05 13:06 -17.80704 -63.02603 4546 ft 183 kts 327°
2026-05-05 13:07 -17.79645 -63.03318 4332 ft 179 kts 327°
2026-05-05 13:07 -17.78609 -63.04016 4074 ft 177 kts 326°
2026-05-05 13:07 -17.77566 -63.04719 3847 ft 175 kts 327°
2026-05-05 13:07 -17.76577 -63.05386 3665 ft 164 kts 327°
2026-05-05 13:08 -17.75632 -63.06022 3429 ft 157 kts 327°
2026-05-05 13:08 -17.74750 -63.06617 3234 ft 146 kts 327°
2026-05-05 13:08 -17.73916 -63.07179 3062 ft 138 kts 327°
2026-05-05 13:08 -17.73112 -63.07721 2881 ft 136 kts 327°
2026-05-05 13:09 -17.72320 -63.08254 2707 ft 135 kts 328°
2026-05-05 13:09 -17.71533 -63.08784 2534 ft 134 kts 328°
2026-05-05 13:09 -17.70796 -63.09281 2370 ft 119 kts 327°
2026-05-05 13:09 -17.70115 -63.09739 2219 ft 115 kts 328°
2026-05-05 13:10 -17.69451 -63.10186 2072 ft 115 kts 329°
2026-05-05 13:10 -17.68769 -63.10645 1923 ft 116 kts 328°
2026-05-05 13:10 -17.68095 -63.11096 1732 ft 115 kts 329°
2026-05-05 13:10 -17.67441 -63.11550 1641 ft 112 kts 331°
2026-05-05 13:11 -17.66780 -63.11989 1509 ft 113 kts 332°
2026-05-05 13:11 -17.66116 -63.12444 1359 ft 112 kts 330°
2026-05-05 13:11 -17.65463 -63.12881 1254 ft 109 kts 330°
2026-05-05 13:11 -17.64905 -63.13249 1229 ft 76 kts 327°
2026-05-05 13:12 -17.64595 -63.13459 1230 ft 38 kts 327°
2026-05-05 13:12 -17.64390 -63.13597 1229 ft 33 kts 327°
2026-05-05 13:12 -17.64200 -63.13724 1227 ft 32 kts 327°
2026-05-05 13:12 -17.64020 -63.13844 1224 ft 27 kts 327°
2026-05-05 13:13 -17.63903 -63.13924 1225 ft 15 kts 325°
2026-05-05 13:13 -17.63907 -63.14002 1225 ft 13 kts 233°
2026-05-05 13:13 -17.63956 -63.14076 1226 ft 12 kts 227°
2026-05-05 13:13 -17.64035 -63.14070 1227 ft 13 kts 150°
2026-05-05 13:14 -17.64124 -63.14012 1227 ft 16 kts 148°
2026-05-05 13:14 -17.64223 -63.13948 1227 ft 17 kts 148°
2026-05-05 13:14 -17.64319 -63.13883 1228 ft 16 kts 147°
2026-05-05 13:14 -17.64396 -63.13863 1228 ft 12 kts 211°
2026-05-05 13:15 -17.64448 -63.13942 1228 ft 15 kts 237°
2026-05-05 13:15 -17.64509 -63.14021 1228 ft 13 kts 206°
2026-05-05 13:15 -17.64588 -63.13995 1228 ft 13 kts 141°
2026-05-05 13:15 -17.64650 -63.13947 1228 ft 8 kts 142°
2026-05-05 13:16 -17.64647 -63.13897 1228 ft 7 kts 57°
2026-05-05 13:16 -17.64628 -63.13875 1228 ft 2 kts 49°
2026-05-05 13:16 -17.64626 -63.13873 1228 ft 0 kts 49°